DateTimeUTC,F1_A11,F1_S11,BsB_S11,BsG_S11,BsR_S11,BbsB_S11,BbsG_S11,BbsR_S11,BaB_A11,BaG_A11,BaR_A11,Tu_S11,T_S11,Uu_S11,U_S11,P_S11,T1_A11
2021-07-19T15:00:00Z,00000200,20000000,,,,,,,0000.09,0000.23,0000.59,19.6,25.8,14.1,09.6,0674.4,31.1
2021-07-19T15:01:00Z,00000200,20000000,,,,,,,0000.08,-000.01,-000.31,19.6,25.9,14.1,09.6,0674.4,31.1
2021-07-19T15:02:00Z,00000200,20000000,,,,,,,-000.20,-000.17,-000.05,19.6,25.9,14.1,09.6,0674.4,31.1
2021-07-19T15:03:00Z,00000200,60000000,,,,,,,-000.20,-000.08,-000.12,19.6,25.9,14.1,09.6,0674.4,31.1
2021-07-19T15:04:00Z,00000200,40000000,0001.06,-000.03,0000.34,0000.19,0000.26,0000.09,-000.01,-000.23,-000.01,19.7,25.7,13.9,09.7,0675.4,31.1
2021-07-19T15:05:00Z,00000200,00000000,-000.26,0000.14,0000.16,0000.13,-000.04,0000.05,0000.36,0000.58,0000.07,19.8,25.7,13.9,09.7,0675.5,31.1
2021-07-19T15:06:00Z,00000200,00000000,0000.21,-000.15,0000.06,0000.62,0000.09,0000.19,-000.27,-000.26,0000.18,19.8,25.7,14.1,09.8,0675.5,31.1
2021-07-19T15:07:00Z,00000200,00000000,-000.17,-000.01,-000.22,0000.27,0000.06,0000.04,-000.18,-000.29,-000.45,19.8,25.7,13.9,09.7,0675.5,31.1
2021-07-19T15:08:00Z,00000200,00000000,0000.01,-000.29,0000.10,0000.11,-000.09,0000.31,0000.47,0000.53,0000.65,19.8,25.7,14.0,09.7,0675.5,31.1
2021-07-19T15:09:00Z,00000200,00000000,0000.02,-000.32,0000.11,0000.07,0000.06,0000.01,-000.44,-000.49,-000.73,19.8,25.7,14.1,09.9,0675.5,31.1
2021-07-19T15:10:00Z,00000200,00000000,-000.05,-000.11,0000.48,0000.16,0000.18,0000.07,0000.46,0000.07,0000.32,19.8,25.7,14.1,09.8,0675.5,31.1
2021-07-19T15:11:00Z,00000200,00000000,0000.20,0000.18,0000.13,0000.08,-000.18,0000.10,-000.34,-000.14,-000.04,19.8,25.7,14.0,09.8,0675.5,31.1
2021-07-19T15:12:00Z,00000200,00000000,-000.02,0000.05,0000.14,0000.36,-000.01,-000.00,0000.20,0000.51,0000.48,19.8,25.7,14.0,09.8,0675.5,31.1
2021-07-19T15:13:00Z,00000200,00000000,-000.07,0000.35,0000.03,-000.20,0000.26,0000.07,0000.32,0000.08,0000.00,19.8,25.7,14.3,10.0,0675.5,31.1
2021-07-19T15:14:00Z,00000200,00000000,-000.13,0000.21,0000.21,0000.52,-000.22,0000.17,-000.44,-000.19,-000.09,19.8,25.7,14.3,10.0,0675.5,31.1
2021-07-19T15:15:00Z,00000200,00000000,-000.49,0000.25,0000.18,0000.14,-000.02,-000.01,0000.20,0000.27,0000.12,19.8,25.7,14.3,10.0,0675.5,31.1
2021-07-19T15:16:00Z,00000200,00000000,0000.03,0000.05,0000.15,0000.56,-000.12,0000.03,-000.17,-000.11,-000.45,19.8,25.7,14.3,10.0,0675.5,31.1
2021-07-19T15:17:00Z,00000200,00000000,0000.41,-000.31,-000.15,-000.07,-000.05,-000.08,0000.16,-000.20,0000.28,19.9,25.7,14.3,10.0,0675.5,31.1
2021-07-19T15:18:00Z,00000200,00000000,-000.44,0000.24,0000.20,-000.01,0000.25,0000.15,0000.05,-000.02,0000.40,19.9,25.8,14.4,10.1,0675.5,31.1
2021-07-19T15:19:00Z,00000200,00000000,-000.27,0000.23,0000.52,0000.08,0000.10,0000.08,0000.09,0000.29,-000.11,19.9,25.8,14.4,10.1,0675.5,31.1
2021-07-19T15:20:00Z,00000200,00000000,0001.07,-000.13,0000.03,-000.27,0000.19,-000.18,0000.18,0000.45,-000.26,19.9,25.8,14.5,10.1,0675.6,31.1
2021-07-19T15:21:00Z,00000200,00000000,0000.70,-000.20,0000.18,0000.25,-000.19,0000.08,-000.07,-000.31,0000.39,19.9,25.8,14.5,10.2,0675.5,31.1
2021-07-19T15:22:00Z,00000200,00000000,0000.70,-000.06,0000.02,0000.56,0000.12,-000.04,0000.09,-000.09,-000.13,19.9,25.8,14.5,10.2,0675.5,31.1
2021-07-19T15:23:00Z,00000200,00000000,-000.08,-000.03,0000.12,-000.01,0000.35,0000.15,0000.35,0000.40,0000.08,19.9,25.8,14.6,10.2,0675.6,31.1
2021-07-19T15:24:00Z,00000200,00000000,-000.01,0000.23,0000.44,0000.20,0000.08,0000.21,0000.25,0000.05,0000.42,19.9,25.8,14.7,10.3,0675.6,31.1
2021-07-19T15:25:00Z,00000200,00000000,-000.01,-000.02,0000.25,0000.01,-000.10,0000.18,-000.11,0000.02,-000.48,19.9,25.8,14.8,10.4,0675.5,31.1
2021-07-19T15:26:00Z,00000200,00000000,0000.06,0000.14,-000.12,0000.77,0000.21,-000.05,-000.34,-000.43,0000.10,19.9,25.8,14.6,10.2,0675.6,31.1
2021-07-19T15:27:00Z,00000200,00000000,-000.34,-000.17,0000.37,0000.19,0000.09,-000.21,0000.51,0000.15,0000.30,19.9,25.8,14.6,10.2,0675.6,31.1
2021-07-19T15:28:00Z,00000200,00000000,0000.21,0000.33,0000.25,0000.26,-000.12,0000.10,-000.21,0000.47,0000.07,19.9,25.8,14.9,10.4,0675.5,31.1
2021-07-19T15:29:00Z,00000200,00000000,-000.20,0000.05,0000.11,0000.27,0000.17,0000.10,-000.25,-000.48,-000.07,19.9,25.8,14.7,10.2,0675.5,31.1
2021-07-19T15:30:00Z,00000200,00000000,0000.19,0000.08,0000.22,0000.36,0000.14,-000.08,0000.26,-000.14,-000.37,19.9,25.8,14.7,10.3,0675.5,31.1
2021-07-19T15:31:00Z,00000200,00000000,-000.59,0000.10,0000.20,-000.02,-000.04,0000.35,-000.29,0000.14,0000.10,19.9,25.8,14.5,10.1,0675.5,31.1
2021-07-19T15:32:00Z,00000200,00000000,-000.31,0000.17,-000.05,-000.44,0000.08,0000.17,0000.17,-000.15,-000.13,19.9,25.8,14.5,10.2,0675.5,31.1
2021-07-19T15:33:00Z,00000200,00000000,-000.06,0000.38,0000.49,-000.08,0000.18,0000.20,0000.12,0000.23,0000.35,19.9,25.8,14.5,10.2,0675.5,31.1
2021-07-19T15:34:00Z,00000200,00000000,0000.08,0000.23,0000.15,-000.13,0000.10,0000.17,-000.32,-000.07,-000.07,19.9,25.8,14.6,10.2,0675.5,31.1
2021-07-19T15:35:00Z,00000200,00000000,0000.24,-000.11,0000.04,0000.05,0000.15,0000.06,-000.01,0000.43,0000.02,19.9,25.8,14.6,10.2,0675.5,31.1
2021-07-19T15:36:00Z,00000200,00000000,-000.02,0000.18,-000.17,0000.01,-000.08,0000.09,-000.07,-000.37,-000.12,19.9,25.8,14.5,10.2,0675.5,31.1
2021-07-19T15:37:00Z,00000200,00000000,-000.16,0000.03,0000.29,-000.15,0000.06,0000.04,-000.01,-000.03,0000.16,19.9,25.8,14.6,10.2,0675.5,31.1
2021-07-19T15:38:00Z,00000200,00000000,-000.66,0000.25,0000.27,0000.41,0000.02,0000.26,0000.52,-000.07,-000.04,19.9,25.8,14.5,10.2,0675.5,31.1
2021-07-19T15:39:00Z,00000200,00000000,0000.00,0000.10,0000.33,-000.02,-000.07,0000.10,-000.23,0000.24,-000.06,19.9,25.8,14.7,10.3,0675.4,31.1
2021-07-19T15:40:00Z,00000200,00000000,-000.22,0000.08,0000.06,-000.40,0000.05,0000.28,-000.23,-000.39,-000.18,20.0,25.8,14.5,10.1,0675.5,31.1
2021-07-19T15:41:00Z,00000200,00000000,-000.39,0000.17,0000.25,-000.38,0000.06,0000.19,-000.05,0000.27,0000.11,20.0,25.8,14.6,10.2,0675.5,31.1
2021-07-19T15:42:00Z,00000200,00000000,0000.10,0000.28,0000.06,-000.38,0000.28,0000.05,0000.18,-000.21,-000.27,20.0,25.8,14.7,10.3,0675.5,31.1
2021-07-19T15:43:00Z,00000200,00000000,-000.08,0000.17,0000.16,0000.27,0000.13,0000.07,-000.34,-000.29,0000.04,20.0,25.8,14.5,10.2,0675.5,31.1
2021-07-19T15:44:00Z,00000200,00000000,0000.15,0000.04,0000.27,-000.19,0000.01,-000.29,0000.04,0000.24,0000.22,20.0,25.8,14.5,10.1,0675.5,31.1
2021-07-19T15:45:00Z,00000200,00000000,-000.37,0000.13,0000.01,0000.45,0000.22,0000.02,0000.15,-000.13,0000.07,20.0,25.8,14.4,10.1,0675.5,31.1
2021-07-19T15:46:00Z,00000200,00000000,0000.61,0000.19,-000.07,0000.09,0000.17,0000.30,-000.20,-000.32,-000.36,19.9,25.8,14.4,10.0,0675.5,31.1
2021-07-19T15:47:00Z,00000200,00000000,0000.14,0000.15,-000.07,0000.72,-000.20,-000.12,-000.14,0000.15,-000.05,20.0,25.8,14.2,10.0,0675.5,31.1
2021-07-19T15:48:00Z,00000200,00000000,0000.24,0000.25,0000.17,-000.49,0000.14,-000.30,0000.01,0000.05,0000.19,20.0,25.8,14.6,10.2,0675.5,31.1
2021-07-19T15:49:00Z,00000200,00000000,0000.04,-000.23,-000.18,0000.13,-000.03,-000.03,0000.28,0000.25,0000.21,20.0,25.8,14.4,10.1,0675.5,31.1
2021-07-19T15:50:00Z,00000200,00000000,0000.60,0000.01,-000.01,0000.15,0000.22,0000.03,-000.09,0000.03,-000.14,20.0,25.9,14.4,10.1,0675.5,31.1
2021-07-19T15:51:00Z,00000200,00000000,-000.38,0000.29,0000.19,-000.19,-000.11,0000.24,-000.13,-000.22,-000.10,20.0,25.9,14.5,10.1,0675.4,31.1
2021-07-19T15:52:00Z,00000200,00000000,0000.36,0000.13,0000.23,0000.69,-000.13,-000.12,-000.42,0000.22,-000.00,20.0,25.9,14.3,10.0,0675.4,31.1
2021-07-19T15:53:00Z,00000200,00000000,-000.43,-000.38,0000.12,0000.21,-000.14,-000.09,0000.65,0000.07,0000.13,20.0,25.9,14.4,10.1,0675.5,31.1
2021-07-19T15:54:00Z,00000200,00000000,0000.18,0000.12,0000.15,-000.07,-000.08,0000.35,-000.24,-000.16,-000.01,20.0,25.9,14.5,10.1,0675.5,31.1
2021-07-19T15:55:00Z,00000200,00000000,0000.30,0000.39,-000.07,0000.39,0000.03,0000.06,0000.27,0000.20,0000.18,20.0,25.9,14.4,10.1,0675.5,31.1
2021-07-19T15:56:00Z,00000200,00000000,0000.18,0000.21,0000.23,0000.01,-000.30,0000.09,0000.18,-000.15,-000.01,20.0,25.9,14.5,10.1,0675.5,31.1
2021-07-19T15:57:00Z,00000200,40000000,,,,,,,-000.12,0000.26,-000.32,20.0,25.9,15.3,10.7,0675.6,31.1
2021-07-19T15:58:00Z,00000200,60000000,,,,,,,-000.08,-000.19,0000.30,19.8,26.0,14.7,10.0,0674.5,31.1
2021-07-19T15:59:00Z,00000200,20000000,,,,,,,0000.06,0000.06,0000.31,19.8,26.1,14.6,10.0,0674.4,31.1
